Regional Weather Roundup
Issued by NWS Charleston, WV

Home | Current Version | Previous Version | Graphics & Text | Print | Product List | Glossary On
Versions: 1 2 3 4 5 6 7 8 9 10 11 12 13 14 15 16 17 18 19 20 21 22 23 24 25 26 27 28 29 30 31 32 33 34 35 36 37 38 39 40 41 42 43 44 45 46 47 48 49 50
000
ASUS41 KRLX 282310
RWRRLX
West Virginia Regional Weather Roundup
National Weather Service Charleston WV
700 PM EDT SUN AUG 28 2016

Note: "fair" indicates few or no clouds below 12,000 feet with no
significant weather and/or obstructions to visibility.

WVZ003-290000-
Northern Panhandle of West Virginia

CITY           SKY/WX    TMP DP  RH WIND       PRES   REMARKS
WHEELING       MOSUNNY   87  72  60 NW9       30.15S
$$

WVZ009-290000-
Northwest West Virginia

CITY           SKY/WX    TMP DP  RH WIND       PRES   REMARKS
PARKERSBURG    CLOUDY    84  72  67 CALM      30.15S
$$

WVZ006-290000-
Western West Virginia

CITY           SKY/WX    TMP DP  RH WIND       PRES   REMARKS
HUNTINGTON     PTSUNNY   80  68  66 CALM      30.12S
$$

WVZ015-290000-
West Central West Virginia

CITY           SKY/WX    TMP DP  RH WIND       PRES   REMARKS
CHARLESTON     CLOUDY    84  70  62 CALM      30.14S
$$

WVZ022-031-290000-
North Central West Virginia

CITY           SKY/WX    TMP DP  RH WIND       PRES   REMARKS
CLARKSBURG     SUNNY     84  71  65 S9        30.14F
MORGANTOWN     PTCLDY    84  69  60 S6        30.15S
$$

WVZ025-035-042-045-290000-
Southern West Virginia

CITY           SKY/WX    TMP DP  RH WIND       PRES   REMARKS
BECKLEY        SUNNY     80  68  66 NE3       30.22F
LOGAN            N/A     68  68 100 CALM      30.17F FOG
BLUEFIELD      SUNNY     79  66  64 SE5       30.26R
LEWISBURG      SUNNY     79  68  69 CALM      30.22S
$$

WVZ047-290000-
Northern Mountains of West Virginia

CITY           SKY/WX    TMP DP  RH WIND       PRES   REMARKS
ELKINS         PTCLDY    76  65  68 SE5       30.21F
$$

WVZ052-290000-
Eastern Panhandle of West Virginia

CITY           SKY/WX    TMP DP  RH WIND       PRES   REMARKS
MARTINSBURG    CLEAR     84  66  54 E6        30.14F
PETERSBURG     CLEAR     88  69  53 SE5       30.13S
$$




USA.gov is the U.S. government's official web portal to all federal, state and local government web resources and services.